Erie, PA

9:01 AM EDT on May 24, 2017 (GMT -0400)
Erie International

Weather History for KERI - August, 2012

Change the Weather History Date:

Saturday, August 11, 2012

  Actual Average Record
Temperature  
Mean Temperature 67 °F 71 °F  
Max Temperature 73 °F 79 °F 91 °F (1918)
Min Temperature 60 °F 63 °F 45 °F (1972)
Degree Days  
Heating Degree Days 0 0  
Month to date heating degree days 0 0  
Since 1 June heating degree days 43 68  
Since 1 July heating degree days 0 7  
Cooling Degree Days 2 6  
Month to date cooling degree days 97 74  
Year to date cooling degree days 699 449  
Since 1 June cooling degree days 604 410  
Growing Degree Days 16 (Base 50)    
Moisture  
Dew Point 58 °F    
Average Humidity 77    
Maximum Humidity 93    
Minimum Humidity 61    
Precipitation  
Precipitation 0.13 in 0.11 in 1.39 in (1941)
Month to date precipitation 1.03 1.28  
Year to date precipitation 19.33 23.64  
Snow  
Snow 0.00 in 0.00 in - ()
Month to date snowfall 0.0 0.0  
Since 1 June snowfall 0.0 0.0  
Since 1 July snowfall 0.0 0.0  
Snow Depth 0.00 in    
Sea Level Pressure  
Sea Level Pressure 29.80 in    
Wind  
Wind Speed 14 mph (SSW)    
Max Wind Speed 23 mph    
Max Gust Speed 32 mph    
Visibility 9 miles    
Events Rain    
T = Trace of Precipitation, MM = Missing Value Source: NWS Daily Summary

Daily Weather History Graph

Daily Weather History Graph

Search for Another Location

Airport or City:

Trip Planner

Search our weather history database for the weather conditions in past years. The results will help you decide how hot, cold, wet, or windy it might be!

Date:

Astronomy

Aug. 11, 2012 Rise Set
Actual Time 6:24 AM EDT 8:26 PM EDT
Civil Twilight 5:54 AM EDT 8:56 PM EDT
Nautical Twilight 5:16 AM EDT 9:33 PM EDT
Astronomical Twilight 4:36 AM EDT 10:14 PM EDT
Moon 12:50 AM EDT (8/11) 4:01 PM EDT (8/11)
Length of Visible Light 15h 02m
Length of Day
14h 01m
Waning Crescent, 33% of the Moon is Illuminated
Aug 11
Waning Crescent
Aug 17
New
Aug 24
First Quarter
Aug 31
Full
Sep 8
Last Quarter

Hourly Weather History & Observations

Time (EDT) Temp. Dew Point Humidity Pressure Visibility Wind Dir Wind Speed Gust Speed Precip Events Conditions
12:51 AM 64.9 °F 62.1 °F 90% 29.72 in 10.0 mi SSE 6.9 mph - N/A   Mostly Cloudy
1:51 AM 64.0 °F 61.0 °F 90% 29.72 in 10.0 mi South 6.9 mph - N/A   Mostly Cloudy
2:51 AM 64.0 °F 60.1 °F 87% 29.72 in 10.0 mi SSW 6.9 mph - N/A   Mostly Cloudy
3:46 AM 62.6 °F 60.8 °F 94% 29.72 in 10.0 mi South 6.9 mph - N/A   Mostly Cloudy
3:51 AM 63.0 °F 60.1 °F 90% 29.72 in 10.0 mi South 5.8 mph - N/A   Mostly Cloudy
3:56 AM 62.6 °F 59.0 °F 88% 29.73 in 10.0 mi South 10.4 mph - N/A   Scattered Clouds
4:51 AM 61.0 °F 55.0 °F 81% 29.73 in 10.0 mi South 11.5 mph - N/A   Mostly Cloudy
5:51 AM 61.0 °F 55.0 °F 81% 29.73 in 10.0 mi South 11.5 mph - N/A   Mostly Cloudy
6:51 AM 61.0 °F 55.0 °F 81% 29.74 in 9.0 mi South 16.1 mph 26.5 mph N/A   Overcast
7:00 AM 60.8 °F 55.4 °F 82% 29.75 in 6.0 mi South 18.4 mph 24.2 mph 0.00 in Rain Light Rain
7:51 AM 61.0 °F 55.9 °F 83% 29.75 in 10.0 mi South 17.3 mph 24.2 mph 0.00 in   Overcast
8:51 AM 64.0 °F 55.9 °F 75% 29.75 in 10.0 mi South 20.7 mph 28.8 mph N/A   Mostly Cloudy
9:51 AM 66.0 °F 57.0 °F 73% 29.77 in 10.0 mi South 18.4 mph 26.5 mph N/A   Mostly Cloudy
9:58 AM 66.2 °F 57.2 °F 73% 29.78 in 10.0 mi South 18.4 mph 26.5 mph N/A   Mostly Cloudy
10:51 AM 66.9 °F 57.0 °F 70% 29.78 in 10.0 mi South 16.1 mph 23.0 mph N/A   Overcast
11:51 AM 68.0 °F 57.0 °F 68% 29.78 in 10.0 mi South 13.8 mph 28.8 mph N/A   Mostly Cloudy
12:51 PM 69.1 °F 57.0 °F 65% 29.79 in 10.0 mi South 19.6 mph 32.2 mph N/A   Overcast
1:03 PM 69.8 °F 55.4 °F 60% 29.79 in 10.0 mi SSW 18.4 mph 26.5 mph N/A   Overcast
1:51 PM 70.0 °F 57.0 °F 63% 29.80 in 10.0 mi SSW 19.6 mph 28.8 mph N/A   Overcast
2:51 PM 69.8 °F 55.4 °F 60% 29.81 in 10.0 mi SSW 17.3 mph 27.6 mph N/A   Overcast
3:18 PM 68.0 °F 57.2 °F 68% 29.82 in 10.0 mi SSW 16.1 mph 25.3 mph N/A   Overcast
3:39 PM 69.8 °F 57.2 °F 64% 29.82 in 10.0 mi SSW 18.4 mph 27.6 mph N/A   Overcast
3:51 PM 68.0 °F 57.0 °F 68% 29.82 in 10.0 mi SSW 16.1 mph 26.5 mph N/A   Overcast
4:00 PM 69.8 °F 57.2 °F 64% 29.83 in 10.0 mi SSW 12.7 mph 21.9 mph N/A   Overcast
4:13 PM 68.0 °F 59.0 °F 73% 29.83 in 6.0 mi SW 10.4 mph 21.9 mph 0.00 in Rain Light Rain
4:39 PM 66.2 °F 59.0 °F 78% 29.84 in 8.0 mi South 13.8 mph 20.7 mph 0.00 in Rain Light Rain
4:51 PM 66.9 °F 59.0 °F 76% 29.83 in 10.0 mi SSW 12.7 mph - 0.00 in   Overcast
5:51 PM 66.9 °F 60.1 °F 79% 29.84 in 4.0 mi SW 13.8 mph 24.2 mph 0.00 in Rain Light Rain
6:06 PM 66.2 °F 60.8 °F 83% 29.85 in 6.0 mi SSW 12.7 mph 20.7 mph 0.00 in Rain Light Rain
6:51 PM 66.0 °F 60.1 °F 81% 29.86 in 10.0 mi SSW 12.7 mph - 0.00 in   Overcast
7:03 PM 66.2 °F 60.8 °F 83% 29.86 in 10.0 mi South 12.7 mph 20.7 mph N/A   Overcast
7:51 PM 64.9 °F 59.0 °F 81% 29.86 in 10.0 mi South 12.7 mph - N/A   Mostly Cloudy
7:59 PM 64.4 °F 59.0 °F 83% 29.87 in 10.0 mi South 15.0 mph 19.6 mph N/A   Scattered Clouds
8:51 PM 64.9 °F 59.0 °F 81% 29.88 in 10.0 mi South 10.4 mph - N/A   Overcast
9:51 PM 64.0 °F 60.1 °F 87% 29.90 in 10.0 mi South 12.7 mph - 0.02 in   Mostly Cloudy
10:51 PM 64.0 °F 60.1 °F 87% 29.90 in 7.0 mi SSW 10.4 mph - 0.01 in Rain Light Rain
11:24 PM 64.4 °F 60.8 °F 88% 29.91 in 7.0 mi SSW 9.2 mph - 0.01 in Rain Light Rain
11:33 PM 64.4 °F 60.8 °F 88% 29.91 in 7.0 mi SSW 9.2 mph - 0.02 in Rain Light Rain
11:51 PM 64.0 °F 61.0 °F 90% 29.90 in 7.0 mi SSW 11.5 mph - 0.02 in Rain Light Rain